Regional Weather Roundup
Issued by NWS Boston, MA

Home | Current Version | Previous Version | Text Only | Print | Product List | Glossary On
Versions: 1 2 3 4 5 6 7 8 9 10 11 12 13 14 15 16 17 18 19 20 21 22 23 24 25 26 27 28 29 30 31 32 33 34 35 36 37 38 39 40 41 42 43 44 45 46 47
000
ASUS41 KBOX 251710
RWRBOX

REGIONAL WEATHER ROUNDUP
NATIONAL WEATHER SERVICE TAUNTON MA
100 PM EDT TUE APR 25 2017

NOTE:  "FAIR" INDICATES FEW OR NO CLOUDS BELOW 12,000 FEET WITH NO
SIGNIFICANT WEATHER AND/OR OBSTRUCTIONS TO VISIBILITY.

MAZALL-251800-
EASTERN MASSACHUSETTS

CITY           SKY/WX    TMP DP  RH WIND       PRES   REMARKS
BOSTON         LGT RAIN  48  43  82 NE20G25   30.26F
BEVERLY        CLOUDY    47  43  86 NE16G25   30.28F
LAWRENCE       CLOUDY    49  41  74 NE15G23   30.30F
BEDFORD        CLOUDY    49  40  71 NE14      30.26F
BLUE HILL        N/A     45  42  89 NE18G32   30.22F
NORWOOD        CLOUDY    48  44  86 NE14G22   30.24F
MARSHFIELD     CLOUDY    46  45  93 NE9G16    30.24F
PLYMOUTH       LGT RAIN  46  44  93 NE12G20   30.22F FOG
TAUNTON        HVY RAIN  47  45  93 VRB5      30.22F FOG
NEW BEDFORD    LGT RAIN  50  49  96 NE12      30.18F FOG
$$

MAZALL-251800-
CAPE COD AND THE ISLANDS

CITY           SKY/WX    TMP DP  RH WIND       PRES   REMARKS
FALMOUTH         N/A    N/A N/A N/A MISG        N/A
HYANNIS        RAIN      51  50  96 E14G24    30.16F FOG
CHATHAM        LGT RAIN  49  48  97 E15       30.21F FOG
PROVINCETOWN   LGT RAIN  46  45  96 NE16G23   30.24F FOG
NANTUCKET      CLOUDY    51  49  92 E23G33    30.15F FOG
MARTHAS VNYRD  CLOUDY    50  48  93 E16G25    30.16F FOG
$$

MAZALL-251800-
CENTRAL AND WESTERN MASSACHUSETTS

CITY           SKY/WX    TMP DP  RH WIND       PRES   REMARKS
WORCESTER      CLOUDY    47  41  80 NE17G24   30.21F
FITCHBURG      CLOUDY    51  41  68 E9        30.26F
ORANGE         CLOUDY    50  43  77 E10G20    30.23F
SPRINGFIELD    CLOUDY    52  48  85 NE13      30.18F
WESTFIELD      CLOUDY    52  50  93 N13G20    30.19F
NORTH ADAMS    CLOUDY    51  43  74 E26G37    30.18F
PITTSFIELD     CLOUDY    49  43  80 E10G21    30.16F
$$

RIZALL-251800-
RHODE ISLAND

CITY           SKY/WX    TMP DP  RH WIND       PRES   REMARKS
PROVIDENCE     RAIN      52  51  97 NE18      30.19F FOG
NEWPORT        LGT RAIN  52  52 100 NE13G23   30.17F
BLOCK ISLAND   LGT RAIN  50  48  93 NE15G29   30.14S FOG
SMITHFIELD     RAIN      48  46  93 NE10      30.21F
WESTERLY       LGT RAIN  54  52  93 NE13G22   30.13F
$$

CTZALL-251800-
CONNECTICUT

CITY           SKY/WX    TMP DP  RH WIND       PRES   REMARKS
BRADLEY INTL   CLOUDY    54  50  86 N14       30.17F
HARTFORD       LGT RAIN  56  49  77 NE10G20   30.16F
BRIDGEPORT     LGT RAIN  58  52  80 NE15      30.08F
DANBURY        CLOUDY    54  52  93 NE12      30.11F
GROTON         CLOUDY    57  53  86 NE20G26   30.10F
NEW HAVEN      LGT RAIN  57  52  83 NE15      30.09F
CHESTER        LGT RAIN  55  54  94 NE10G17   30.11F
MERIDEN        LGT RAIN  56  51  84 NE8       30.13F
WILLIMANTIC    CLOUDY    57  49  74 NE9       30.16F
OXFORD         CLOUDY    54  46  76 E14G23    30.12F FOG
$$

MEZ002-015-021-024-NHZ003-005-008-011-012-014-VTZ005-008-251800-
NORTHERN NEW ENGLAND

CITY           SKY/WX    TMP DP  RH WIND       PRES   REMARKS
PORTLAND ME    LGT RAIN  46  41  82 E14       30.38S
BANGOR ME      PTSUNNY   57  29  34 SE12G18   30.40F
CONCORD NH     CLOUDY    49  43  80 NE8       30.31F
MANCHESTER NH  CLOUDY    50  39  66 NE8       30.28F
NASHUA NH      CLOUDY    50  42  74 NE13G18   30.28F
PORTSMOUTH NH  CLOUDY    46  41  80 NE15      30.31F
JAFFREY NH     CLOUDY    48  43  82 VRB3      30.25F
KEENE NH       CLOUDY    50  43  76 NE13      30.25F
BURLINGTON VT  CLOUDY    58  36  43 SE21G31   30.22S
MT. WASHINGTON SLEET     30  30 100 SE41        N/A  VSB 1/4 WCI  13
$$

NYZ052-076-251800-
EASTERN NEW YORK

CITY           SKY/WX    TMP DP  RH WIND       PRES   REMARKS
ALBANY         CLOUDY    50  45  83 N7        30.18F
NEW YORK CITY  CLOUDY    57  51  80 E24G30    30.06F
$$

ANZALL-251800-
MARINE OBSERVATIONS

STATION/POSITION TIME  TEMP    WIND        PRES    VSBY  WAVE
                       AIR SEA DIR/SP/G                  HT/PER
                 (UTC) (F)     (DEG/KT/KT) (MB)    (MI)  (FT/S)
BOSTON BUOY      1650   45 46   40/ 17/ 21 1023.4F         4/ 5
BUZZARDS BAY     1600   48      40/ 19/ 22 1022.1S
NANTUCKET SOUND  1650      48              1020.9F         3/ 4
MASS BAY-STELLWA 1604   45 44   40/ 17/ 21 1024.4F         4/ 4
ISLE OF SHOALS   1600   43      30/ 21/ 24 1026.4F
S OF BLOCK IS    1655      47                N/A           5/ 6
$$

......................KEY.........................
  SKY/WX - SKY CONDITION/PRESENT WEATHER
  TMP    - TEMPERATURE IN FAHRENHEIT
  DWPT   - DEWPOINT IN FAHRENHEIT
  RH     - RELATIVE HUMIDITY IN PERCENT
  WIND   - DIRECTION AND SPEED IN MPH
  PRES   - MEAN SEA LEVEL PRESSURE IN INCHES OF HG
  WCI    - WIND CHILL INDEX
  VSB    - VISIBILITY IN MILES
  HX     - HEAT INDEX
  TC     - TEMPERATURE IN CELSIUS
  VRB    - VARIABLE WIND DIRECTION
  N/A    - NOT AVAILABLE



USA.gov is the U.S. government's official web portal to all federal, state and local government web resources and services.